This is the latest recevied weather packets stored in our database for station/object I1SXT-13. If no packets are shown the sender has not sent any weather packets the latest 1 day(s).
| Time | Temp. | Humidity | Pressure | Rain* | Wind** | Luminosity | Snow |
|---|---|---|---|---|---|---|---|
| 1778033366 | 13.89° C | 94% | 1009.4 hPa | 0.51 mm | - | - | - |
| 1778032765 | 13.89° C | 94% | 1009.5 hPa | 0.51 mm | - | - | - |
| 1778032468 | 13.89° C | 94% | 1008.9 hPa | 0.51 mm | - | - | - |
| 1778032164 | 13.89° C | 94% | 1009.2 hPa | 0.51 mm | - | - | - |
| 1778031867 | 13.89° C | 94% | 1009.8 hPa | 0.51 mm | - | - | - |
| 1778031265 | 13.89° C | 93% | 1009.6 hPa | 0.51 mm | - | - | - |
| 1778030367 | 13.89° C | 94% | 1010 hPa | 0.51 mm | - | - | - |
| 1778030070 | 13.89° C | 94% | 1010.2 hPa | 0.51 mm | - | - | - |
| 1778029766 | 13.89° C | 94% | 1010.6 hPa | 0.51 mm | - | - | - |
| 1778029165 | 14.44° C | 94% | 1010.5 hPa | 0.51 mm | - | - | - |
| 1778028868 | 14.44° C | 94% | 1010.1 hPa | 0.25 mm | - | - | - |
| 1778028564 | 14.44° C | 93% | 1010.4 hPa | 0.25 mm | - | - | - |
| 1778028267 | 14.44° C | 93% | 1011.1 hPa | 0.25 mm | - | - | - |
| 1778027665 | 14.44° C | 93% | 1011.6 hPa | 0.25 mm | - | - | - |
| 1778027368 | 14.44° C | 93% | 1011.2 hPa | 0.25 mm | - | - | - |
| 1778027064 | 14.44° C | 94% | 1010.5 hPa | 0.25 mm | - | - | - |
| 1778026767 | 14.44° C | 93% | 1010.9 hPa | 0.25 mm | - | - | - |
| 1778026470 | 14.44° C | 93% | 1011.1 hPa | 0.25 mm | - | - | - |
| 1778026166 | 14.44° C | 92% | 1011.5 hPa | 0 mm | - | - | - |
| 1778025869 | 13.89° C | 92% | 1011.2 hPa | 0 mm | - | - | - |
| 1778023768 | 15.56° C | 81% | 1011.5 hPa | 0 mm | - | - | - |
| 1778019864 | 15° C | 86% | 1012.2 hPa | 0 mm | - | - | - |
| 1778018966 | 15° C | 83% | 1012.6 hPa | 0 mm | - | - | - |
| 1778016565 | 15° C | 88% | 1013 hPa | 0 mm | - | - | - |
| 1778014464 | 14.44° C | 92% | 1012.3 hPa | 0 mm | - | - | - |
* Rain since midnight (hover to see other rain measurements)
** Current wind speed in m/s (hover to see current wind gust speed)